Flag Weather past 2 weeks in Victoria, Seychelles

Now
77 °F

Sprinkles. Partly sunny.


Feels Like: 78 °F
Forecast: 77 / 82 °F
Wind: 14 mph from Northwest

Location: National Airport

Current Time: Nov 28, 2014 at 6:49:59 AM

Latest Report: Nov 28, 2014 at 6:00 AM


Visibility: N/A

Pressure: 29.83 "Hg

Humidity: 83%

Dew point: 72 °F

Location of VictoriaLocation

Historic Weather in Victoria — Graph

°F

Victoria temperature yesterday

Maximum temperature yesterday: 90 °F (at 4:00 PM)
Minimum temperature yesterday: 79 °F (at 5:00 AM)
Average temperature yesterday: 84 °F

Past Weeks' High & Low Weather Summary

 TemperatureHumidityPressure
High122 °F (Nov 14, 10:00 AM)100% (Nov 15, 9:00 PM)29.92 "Hg (Nov 15, 9:00 PM)
Low75 °F (Nov 15, 9:00 PM)6% (Nov 14, 10:00 AM)29.71 "Hg (Nov 27, 3:00 PM)
Average82 °F76%29.83 "Hg
* Reported Nov 13 5:00 AM — Nov 28 5:00 AM, Victoria, Weather by CustomWeather, © 2014

Note: Actual official high and low records may vary slightly from our data, if they occured in-between our weather recording intervals... More about our weather records

Advertising

Victoria weather history for previous 24 hours

 ConditionsComfort  
Time TempWeatherWind HumidityBarometerVisibility
5:00 AM
Nov 28
77 °FPassing clouds.6 mph94%29.80 "HgN/A
4:00 AM79 °FPassing clouds.6 mph89%29.80 "HgN/A
3:00 AM77 °FSprinkles. Passing clouds.13 mph94%29.80 "HgN/A
2:00 AM81 °FPassing clouds.9 mph84%29.77 "HgN/A
1:00 AM81 °FPassing clouds.15 mph84%29.80 "HgN/A
12:00 AM77 °FPassing clouds.10 mph94%29.80 "HgN/A
11:00 PM
Nov 27
79 °FSprinkles. Passing clouds.7 mph89%29.83 "Hg5 mi
10:00 PM82 °FPassing clouds.5 mph79%29.83 "HgN/A
9:00 PM82 °FPassing clouds.9 mph79%29.83 "HgN/A
8:00 PM82 °FPassing clouds.9 mph79%29.80 "HgN/A
7:00 PM84 °FPassing clouds.9 mph74%29.77 "HgN/A
6:00 PM84 °FPassing clouds.12 mph70%29.77 "HgN/A
5:00 PM86 °FScattered clouds.6 mph70%29.74 "HgN/A
4:00 PM90 °FScattered clouds.9 mph63%29.74 "HgN/A
3:00 PM88 °FScattered clouds.12 mph70%29.71 "HgN/A
2:00 PM88 °FScattered clouds.12 mph70%29.74 "HgN/A
1:00 PM88 °FScattered clouds.17 mph62%29.80 "HgN/A
12:00 PM86 °FScattered clouds.14 mph75%29.80 "HgN/A
11:00 AM88 °FScattered clouds.15 mph62%29.80 "HgN/A
8:00 AM86 °FScattered clouds.8 mph70%29.80 "HgN/A
7:00 AM82 °FScattered clouds.8 mph79%29.80 "HgN/A
6:00 AM81 °FScattered clouds.7 mph84%29.80 "HgN/A
Weather by CustomWeather, © 2014

See weather overviewHow to use our weather pages